Regional Weather Roundup
Issued by NWS State College, PA

Home | Current Version | Previous Version | Text Only | Print | Product List | Glossary Off
Versions: 1 2 3 4 5 6 7 8 9 10 11 12 13 14 15 16 17 18 19 20 21 22 23 24 25 26 27 28 29 30 31 32 33 34 35 36 37 38 39 40 41 42 43 44 45

000
ASUS41 KCTP 110610
RWRCTP

REGIONAL WEATHER ROUNDUP
NATIONAL WEATHER SERVICE STATE COLLEGE PA
100 AM EST MON DEC 11 2017

Note: "fair" indicates few or no clouds below 12,000 feet with no
significant weather and/or obstructions to visibility.

* = STATION THAT DOES NOT REPORT PRECIPITATION /E.G. RAIN...SNOW...ETC/
    THUNDER OR FOG.

PAZ002>004-007>009-013>016-020>023-029>032-110700-
WESTERN PENNSYLVANIA

CITY           SKY/WX    TMP DP  RH WIND       PRES   REMARKS
ERIE           LGT SNOW  27  24  89 SW10      29.92S FOG
MEADVILLE      CLOUDY    25  22  88 SW9       29.90S
FRANKLIN*      FLURRIES  25  21  85 SW9       29.90F
NEW CASTLE     CLOUDY    30  20  66 SW6       29.95F
BEAVER COUNTY  NOT AVBL
BUTLER*        CLOUDY    29  19  66 SW8       29.94F
PITTSBURGH INT CLOUDY    33  18  53 SW7       29.95F
PITTSBURGH     CLOUDY    31  15  52 SW15G22   29.94F
INDIANA*       CLOUDY    30  19  64 W12G20    29.97S
LATROBE        CLOUDY    32  18  55 SW9       29.97S
WASHINGTON CO* CLOUDY    32  17  54 SW8       29.99F
$$

PAZ004>006-010>012-017>019-024>028-033>037-041-042-045-046-049>053-110700-
CENTRAL PENNSYLVANIA

CITY           SKY/WX    TMP DP  RH WIND       PRES   REMARKS
BRADFORD       LGT SNOW  22  20  92 SW6       29.83F FOG     WCI  14
DUBOIS         LGT SNOW  25  18  74 W12       29.88S WCI  14
CLEARFIELD     CLOUDY    29  18  63 W12       29.90F
JOHNSTOWN      CLOUDY    27  17  66 W15G24    29.88S
ALTOONA        CLOUDY    33  17  51 W15G24    29.93F
STATE COLLEGE  CLOUDY    31  18  59 W10G16    29.93S
WILLIAMSPORT   CLOUDY    34  20  56 W7        29.95F
SELINSGROVE    CLOUDY    32  21  64 S5        29.98F
FT INDIANTOWN  CLOUDY    31  23  71 CALM      29.98F
CAPITAL CITY   CLOUDY    36  17  46 CALM      29.99F
HARRISBURG     CLOUDY    35  23  61 S8        29.99F
YORK           CLOUDY    34  20  56 CALM      29.99F
$$

PAZ038>040-043-044-047-048-054-055-060>062-067>071-110700-
EASTERN PENNSYLVANIA

CITY           SKY/WX    TMP DP  RH WIND       PRES   REMARKS
SCRANTON       CLOUDY    31  20  63 SW10      29.93F
MOUNT POCONO   CLOUDY    25  19  78 W12       29.87F WCI  14
ALLENTOWN      CLOUDY    32  21  64 SW8       29.98F
QUAKERTOWN*    CLOUDY    32  21  64 SW3       30.00S
READING        CLOUDY    34  23  64 W6        30.00S
LANCASTER      CLOUDY    34  22  61 S7        30.00F
COATESVILLE    CLOUDY    32  21  64 CALM      30.01F
POTTSTOWN      CLOUDY    33  20  58 SW6       30.02F
BLUE BELL      CLOUDY    32  23  69 CALM      30.03F
DOYLESTOWN     CLOUDY    32  21  64 SW3       30.00S
WILLOW GROVE   NOT AVBL
NORTH PHILA    CLOUDY    36  26  67 SW3       30.04F
PHILADELPHIA   CLOUDY    35  27  72 SW9       30.04F
$$




USA.gov is the U.S. government's official web portal to all federal, state and local government web resources and services.